Temperature
20 21 20 20 20 19 18 18 17 16 15 14 13 13 14 14 14 14 13 13 13 13 13 12 12 12 12 12 11 11 11 11 11 11 10 10 10 10 10 9 9 9 9 9
19 20 20 19 19 19 18 17 17 15 14 14 14 14 14 14 14 13 13 13 13 13 12 12 12 12 12 11 11 11 11 11 11 10 10 10 10 9 9 9 9 9 9 9
18 20 19 16 17 17 17 15 14 13 13 12 12 13 13 14 14 13 13 13 13 12 12 12 12 11 11 11 11 11 11 11 10 10 10 10 10 9 9 9 8 8 9 9
17 18 18 17 18 18 17 14 14 14 13 13 13 13 14 13 13 13 12 12 12 11 11 11 10 10 10 10 10 10 10 10 10 10 10 9 9 9 9 8 8 8 8 8
16 17 18 18 18 17 16 14 14 13 12 13 13 12 12 13 12 12 12 11 10 10 9 9 9 8 8 8 8 8 8 8 8 9 9 9 8 8 8 8 8 8 8 8
16 18 17 16 17 18 17 14 13 13 12 12 12 9 10 12 12 11 10 10 9 8 8 7 7 6 6 5 5 5 5 6 6 7 7 7 7 7 7 7 7 7 7 7
16 17 16 16 17 15 13 12 14 14 13 13 11 10 12 11 11 10 9 8 8 7 6 6 5 5 4 4 4 4 4 4 4 5 5 6 6 6 6 6 6 7 7 7
15 15 15 16 15 14 13 14 14 13 13 12 12 12 11 10 9 9 8 7 6 6 5 5 5 4 4 4 4 4 4 4 4 4 4 4 5 5 5 5 6 6 6 6
14 14 15 16 15 15 15 14 13 13 13 12 12 11 10 9 9 8 7 6 5 5 5 4 4 4 4 4 4 4 4 3 3 3 3 4 4 4 5 5 5 5 6 6
15 15 15 15 15 15 14 13 13 13 12 11 11 10 9 8 8 7 6 5 5 4 4 4 4 4 4 4 4 4 4 4 3 3 3 3 4 4 4 5 5 5 5 6
15 15 15 15 15 14 14 13 13 12 11 11 10 9 8 7 7 6 5 5 5 4 4 4 5 5 4 4 4 4 4 4 4 3 3 4 4 4 4 4 5 5 5 6
13 15 14 15 14 14 13 13 12 11 11 10 9 8 8 7 6 6 5 5 5 5 5 5 5 5 5 5 4 4 4 4 4 4 4 4 4 4 4 4 5 5 5 6
17 16 15 15 14 14 13 12 12 11 10 9 9 8 7 7 6 6 5 5 5 5 5 5 5 5 5 5 5 5 4 4 4 4 4 4 4 4 4 5 5 5 5 5
16 16 15 14 14 13 13 12 11 10 10 9 8 7 7 6 6 6 5 5 5 5 5 5 5 5 5 5 5 5 5 4 4 4 4 4 4 4 4 4 5 5 5 5
16 16 15 14 14 13 12 11 10 10 9 8 8 7 7 6 6 6 6 6 6 6 5 5 5 5 6 5 5 5 5 5 4 4 4 4 4 4 5 5 5 5 5 6
16 15 15 14 13 13 12 11 10 9 9 8 7 7 6 6 6 6 6 6 6 6 6 6 6 6 6 6 6 6 5 5 5 5 5 5 5 5 5 5 5 5 6 6
16 15 14 14 13 12 11 10 10 9 8 8 7 7 6 6 6 6 6 6 6 6 6 6 6 6 6 6 6 6 6 6 6 5 5 5 5 5 5 5 6 6 6 6
16 15 14 14 13 12 11 10 9 9 8 8 7 7 6 6 6 6 6 6 7 7 7 7 6 7 7 7 6 6 6 6 6 6 6 6 6 6 6 6 6 6 6 6
15 15 14 13 13 12 11 10 9 9 8 8 7 6 6 6 6 6 6 6 6 6 7 7 7 7 7 7 7 7 7 7 7 7 7 7 7 7 7 7 7 7 6 6
15 14 14 13 12 11 10 9 9 9 8 7 7 6 6 6 6 6 6 6 6 6 7 8 8 8 8 8 7 7 7 7 7 7 7 7 7 7 7 7 7 7 7 6
15 14 14 13 12 11 10 9 9 8 8 7 7 6 6 6 6 6 6 6 7 7 8 8 8 8 8 8 8 8 7 7 7 7 7 7 7 7 7 7 7 7 7 7
15 14 13 13 12 11 10 9 9 8 8 7 7 6 6 6 6 6 6 5 6 7 8 8 8 8 9 9 9 8 8 8 7 7 7 7 7 7 7 7 7 7 7 7
14 14 13 12 11 11 10 9 9 8 7 7 6 6 5 5 5 5 5 6 6 7 8 8 8 9 9 9 9 9 9 8 8 8 7 7 7 7 7 7 7 7 7 7
14 14 13 12 11 11 10 9 9 8 7 7 6 6 5 5 5 5 5 5 6 7 8 8 9 9 10 10 10 10 10 9 9 9 8 8 8 8 8 7 7 7 7 8
14 14 13 12 12 11 10 9 9 8 7 7 6 6 5 5 5 5 5 6 6 7 8 8 9 9 10 10 10 10 10 10 10 10 9 9 9 9 8 8 8 8 8 8
14 14 13 13 12 11 10 9 9 8 7 7 6 6 5 5 5 5 5 5 6 6 7 8 9 9 10 10 10 10 11 11 11 10 10 10 10 9 9 9 9 9 9 9
14 14 13 12 12 11 10 9 9 8 7 6 6 6 5 5 5 5 5 5 5 6 6 7 8 9 9 10 10 10 11 11 11 11 11 11 10 10 10 10 10 10 10 10
Wind_Speed
2 7 11 10 10 10 9 5 2 3 3 4 6 7 8 9 11 11 8 9 10 10 10 10 10 11 11 11 11 11 11 12 13 13 13 12 11 11 11 11 12 11 10 10
6 10 12 12 11 8 6 5 3 3 1 5 7 7 9 11 13 10 11 12 13 13 13 12 13 13 12 12 12 11 11 12 12 12 11 11 11 11 10 10 11 10 11 11
4 3 3 6 6 6 4 5 4 3 5 9 9 10 11 12 11 12 14 16 16 14 14 14 14 14 14 14 13 12 12 12 12 12 12 12 11 9 9 10 9 10 11 11
2 6 3 3 1 5 4 5 4 2 7 8 10 11 9 10 11 14 16 15 15 14 14 13 13 13 13 13 13 13 13 13 12 11 12 11 9 9 9 8 8 8 9 10
3 2 2 0 4 4 2 3 4 6 9 11 10 8 7 10 11 14 16 16 14 14 14 13 14 14 15 15 15 15 14 13 12 11 11 10 10 9 8 7 8 8 8 9
4 2 3 3 6 6 3 2 3 8 9 10 10 11 8 11 13 13 12 11 11 11 12 13 14 14 16 17 16 16 16 14 12 11 10 10 10 9 7 7 8 8 9 9
3 2 2 4 5 5 5 7 8 7 8 8 8 8 12 15 12 11 11 11 11 12 13 15 15 15 16 16 17 17 17 15 13 12 11 10 9 7 7 8 8 8 9 9
2 2 5 4 4 3 5 7 7 6 7 8 10 11 11 12 11 12 12 12 13 13 15 15 16 16 18 18 18 17 17 17 15 13 13 12 8 7 8 8 8 8 8 8
6 5 5 2 4 5 5 4 5 6 8 8 10 10 11 10 11 12 12 14 13 15 18 18 15 15 18 18 18 17 16 16 14 13 12 11 9 9 8 7 7 7 7 7
3 3 5 4 1 1 2 3 6 6 8 9 9 10 11 11 11 13 13 14 16 18 19 19 17 16 16 17 16 15 15 14 12 11 10 9 8 8 8 7 7 7 7 7
2 2 2 3 3 2 3 5 7 8 7 9 9 9 9 10 12 13 14 14 16 18 19 20 19 18 17 16 15 15 14 12 10 9 9 8 7 6 7 6 7 7 6 6
6 6 5 5 4 2 5 6 7 8 9 8 7 9 9 11 11 12 16 17 17 18 19 19 18 18 16 15 14 13 11 10 8 7 6 6 5 5 6 7 9 11 10 7
7 7 6 3 1 2 3 6 7 7 7 8 8 7 9 10 11 14 16 18 18 19 19 18 18 17 16 15 14 13 11 10 7 6 6 5 4 3 3 2 2 5 7 8
8 7 4 2 1 2 4 6 7 7 7 7 7 8 10 10 13 16 17 17 17 18 17 16 17 16 16 15 13 12 10 9 8 5 5 4 3 2 2 1 1 1 1 2
8 7 6 5 3 4 4 5 6 7 8 7 7 9 11 13 15 16 15 15 16 17 17 16 16 16 16 14 13 12 9 6 5 5 4 3 2 2 1 1 3 3 3 4
8 7 6 5 3 3 4 5 5 7 7 7 8 10 12 13 13 14 14 15 17 18 17 16 16 16 16 13 12 10 8 10 7 4 4 3 3 2 1 2 4 4 5 5
8 6 5 3 1 1 3 4 4 5 6 7 8 10 12 13 14 15 16 16 15 15 14 15 16 17 14 11 10 8 7 7 8 5 4 3 2 2 1 2 3 3 4 5
9 8 9 7 4 1 3 4 5 5 5 7 9 10 11 12 14 15 16 16 15 15 15 17 17 17 14 10 8 7 6 5 4 4 3 2 2 1 2 2 3 4 4 4
9 9 9 8 6 2 1 3 4 5 6 6 8 10 11 11 12 13 13 14 15 17 19 20 23 16 13 11 10 6 6 6 5 4 3 3 2 2 2 2 3 3 4 4
9 9 9 7 5 2 1 3 3 4 5 6 8 9 11 12 13 13 13 11 10 12 18 20 18 15 13 11 11 5 4 4 4 4 3 3 3 2 2 3 3 4 4 4
10 9 9 7 4 1 2 3 2 4 5 6 7 9 10 11 11 11 12 13 15 17 20 19 15 15 14 13 10 5 3 2 2 2 2 3 3 2 3 3 4 4 4 4
9 9 8 7 4 2 3 2 2 3 5 6 8 9 9 10 11 10 8 8 13 19 17 13 14 19 21 15 7 5 3 2 1 1 1 0 1 2 2 2 3 3 4 4
8 8 8 7 5 3 2 1 1 2 3 5 7 8 8 8 8 10 12 12 13 19 15 12 20 26 22 12 9 8 6 3 2 2 2 2 2 2 2 2 2 3 3 3
9 9 9 7 5 3 2 2 1 1 2 3 6 7 7 7 7 7 8 13 17 18 13 15 22 24 18 11 11 11 9 7 4 2 1 1 2 2 2 3 3 3 4 4
10 9 8 7 6 5 5 3 1 2 3 4 6 6 5 5 6 9 10 12 16 15 13 15 20 20 14 12 12 12 11 11 9 5 2 1 1 2 2 3 3 4 4 5
9 8 7 7 6 6 5 4 2 1 1 3 4 5 5 6 7 8 9 11 13 14 12 11 13 14 13 13 13 13 12 12 11 9 7 5 3 2 1 2 4 4 4 5
9 7 5 5 5 6 6 5 4 3 2 1 3 5 6 6 7 9 10 10 11 11 11 11 11 12 12 12 12 12 12 12 11 11 9 7 6 4 4 3 3 3 3 4
Wind_Direction
10 84 89 78 64 62 70 75 98 297 129 357 333 322 312 311 313 316 318 315 308 297 286 278 272 267 262 259 256 250 245 240 239 240 238 237 238 242 245 247 251 251 252 256
47 102 92 69 51 44 45 36 20 63 99 310 306 313 317 318 319 313 309 309 306 299 292 287 281 277 272 268 263 255 247 242 238 231 227 226 229 232 236 241 245 247 248 251
336 291 71 32 27 47 33 37 67 40 305 307 318 320 312 312 311 305 308 309 305 300 292 289 287 284 281 277 272 261 253 247 237 229 224 220 220 219 224 233 240 245 248 248
8 26 34 231 72 68 94 94 59 355 304 306 305 300 291 297 302 305 306 306 304 302 300 299 297 298 296 293 288 279 269 260 250 238 230 221 215 216 223 227 234 240 245 247
65 6 200 295 10 354 298 193 50 357 332 321 309 305 288 283 295 298 302 306 311 314 316 319 320 321 319 314 307 299 290 279 266 250 238 226 219 218 221 227 236 238 239 242
52 355 257 272 319 312 329 279 344 349 325 318 333 332 306 305 306 306 311 318 322 325 324 324 322 322 319 314 310 305 302 296 287 271 251 237 225 223 224 225 235 240 241 238
42 313 272 301 325 33 51 282 300 308 311 316 313 287 295 310 316 320 322 321 322 322 322 320 319 317 312 308 304 301 297 294 291 283 269 253 238 230 232 237 238 239 241 240
88 5 276 320 45 71 249 261 289 300 303 300 294 293 302 313 319 324 323 322 323 324 323 320 317 316 312 308 304 300 296 289 284 280 274 272 253 244 239 237 237 238 239 243
178 208 219 130 147 206 226 276 293 296 300 303 309 309 318 321 324 324 323 324 325 325 323 322 320 316 312 310 308 306 302 294 288 282 274 266 256 252 247 234 231 232 227 233
117 163 172 155 150 337 349 317 306 306 309 317 319 321 326 326 327 327 329 326 328 328 326 324 323 319 313 312 313 310 306 301 292 285 280 271 261 251 244 232 224 222 219 223
167 193 187 331 338 350 10 349 335 326 320 326 330 328 328 327 327 329 329 328 328 326 324 322 322 320 318 317 317 315 312 306 299 290 282 276 267 255 242 228 214 206 208 206
212 219 194 252 283 42 23 346 330 331 331 332 335 330 331 327 325 327 329 328 327 325 323 322 322 321 320 319 319 317 315 312 306 300 294 283 279 281 256 240 232 224 216 201
174 182 181 210 79 42 6 340 334 337 335 331 332 332 329 324 325 328 329 329 327 325 323 323 323 323 323 323 322 319 316 313 309 305 303 297 289 279 288 307 276 227 217 208
165 158 153 156 173 11 3 343 342 339 331 329 329 328 327 324 326 330 329 326 324 323 324 325 325 325 325 326 325 323 321 324 327 315 312 308 299 282 248 211 141 84 85 159
173 161 163 156 100 26 359 349 346 333 327 330 330 329 327 327 327 325 323 323 325 327 328 329 329 328 328 329 329 328 327 325 325 326 328 325 321 314 276 187 145 129 115 82
164 142 128 110 74 9 350 346 337 325 327 328 329 325 323 321 319 321 325 330 332 330 330 331 331 328 327 327 330 331 331 340 348 339 341 349 357 14 46 97 125 134 139 139
155 163 154 145 137 357 337 325 321 321 323 325 320 317 320 323 327 331 332 331 327 323 326 332 331 328 325 323 326 329 331 334 345 346 348 358 13 39 86 116 124 131 140 157
165 167 163 158 160 148 334 330 325 323 317 312 315 320 324 326 327 327 327 327 330 334 339 337 332 329 324 322 325 325 329 329 328 334 344 3 14 49 86 106 116 119 121 143
149 147 147 140 137 128 318 308 306 308 312 315 320 321 318 317 319 323 328 332 338 341 338 334 328 328 324 322 326 316 326 337 341 340 344 357 23 62 93 100 105 117 131 135
148 147 144 138 128 122 310 300 303 309 309 314 322 324 325 328 330 332 333 331 333 333 331 329 331 331 329 323 322 306 313 332 346 354 8 24 37 55 84 103 111 119 125 135
156 154 149 145 144 147 304 304 300 305 309 322 329 325 322 322 327 332 337 339 338 338 336 331 337 339 336 331 321 306 294 296 324 344 12 31 39 53 74 98 111 121 128 130
164 160 158 158 168 223 281 272 276 308 326 334 333 331 332 334 336 337 332 330 330 334 338 337 342 339 340 338 341 334 312 282 256 275 298 23 73 80 86 101 113 119 122 120
170 169 167 172 184 212 243 231 282 331 346 346 339 337 336 332 335 341 341 338 338 335 337 337 338 339 344 354 356 355 353 338 293 258 248 236 216 191 175 161 149 142 137 132
177 177 178 182 174 166 180 216 244 19 24 355 339 338 339 339 338 338 331 332 338 336 339 335 338 343 351 2 3 4 4 360 352 331 256 224 210 201 192 185 176 170 167 164
181 179 177 174 176 182 183 175 117 57 35 354 339 342 345 346 340 337 339 341 343 344 343 341 345 349 360 4 6 6 6 5 2 3 14 54 183 191 190 183 175 169 171 176
184 187 187 185 176 166 161 149 138 126 59 360 341 341 344 344 341 344 346 346 346 345 348 351 354 357 2 4 5 6 6 4 5 5 8 15 25 49 105 146 154 157 162 169
190 187 171 155 151 151 149 147 145 145 128 68 357 346 351 350 350 352 353 353 353 352 353 356 359 2 4 6 5 6 7 7 7 5 6 14 19 25 35 59 85 107 123 137
Height
1512 1508 1510 1514 1514 1514 1519 1522 1529 1526 1527 1527 1523 1519 1516 1511 1506 1501 1497 1493 1488 1484 1479 1474 1470 1466 1461 1457 1454 1450 1447 1444 1442 1440 1439 1437 1436 1435 1434 1433 1432 1431 1430 1429
1518 1514 1513 1519 1518 1518 1519 1521 1523 1524 1527 1523 1520 1516 1511 1506 1501 1496 1491 1486 1481 1476 1471 1466 1461 1455 1451 1446 1443 1440 1436 1434 1432 1430 1429 1428 1427 1426 1426 1425 1424 1423 1422 1422
1526 1516 1516 1531 1525 1524 1524 1525 1526 1531 1529 1521 1517 1513 1508 1503 1498 1493 1488 1482 1475 1470 1464 1458 1452 1446 1441 1436 1432 1428 1425 1422 1421 1419 1418 1417 1417 1416 1416 1416 1415 1415 1414 1414
1529 1527 1536 1532 1521 1521 1523 1527 1525 1525 1523 1518 1514 1509 1505 1501 1495 1489 1482 1476 1470 1463 1457 1451 1445 1438 1432 1427 1422 1417 1413 1411 1409 1407 1406 1405 1405 1405 1406 1406 1406 1405 1405 1406
1535 1535 1532 1526 1522 1521 1522 1525 1524 1521 1517 1513 1509 1504 1500 1497 1492 1486 1478 1472 1465 1458 1451 1444 1437 1430 1423 1417 1412 1407 1403 1399 1397 1395 1394 1393 1393 1393 1394 1395 1395 1396 1396 1397
1534 1535 1538 1532 1522 1518 1519 1524 1521 1518 1514 1509 1504 1502 1495 1490 1485 1479 1473 1466 1459 1451 1444 1436 1429 1422 1414 1407 1401 1396 1391 1387 1385 1383 1381 1381 1381 1382 1383 1384 1385 1386 1387 1388
1536 1537 1534 1527 1521 1520 1532 1531 1520 1516 1512 1508 1504 1501 1492 1485 1479 1474 1467 1460 1453 1445 1437 1429 1421 1414 1406 1399 1392 1386 1381 1376 1373 1371 1369 1369 1369 1370 1372 1373 1374 1376 1377 1378
1538 1542 1539 1524 1522 1526 1528 1520 1517 1514 1510 1505 1500 1495 1488 1482 1475 1468 1461 1453 1445 1437 1429 1422 1414 1406 1398 1391 1384 1377 1371 1366 1362 1360 1359 1358 1358 1359 1361 1363 1364 1366 1368 1369
1531 1533 1525 1523 1523 1523 1521 1518 1515 1511 1506 1501 1495 1489 1483 1477 1471 1463 1456 1448 1440 1431 1423 1415 1408 1400 1392 1384 1376 1369 1363 1358 1353 1351 1349 1348 1348 1349 1351 1353 1355 1357 1360 1361
1524 1524 1522 1522 1521 1519 1517 1515 1511 1507 1502 1497 1492 1486 1480 1473 1466 1459 1451 1443 1434 1426 1417 1409 1402 1395 1387 1379 1371 1364 1357 1352 1347 1344 1342 1341 1340 1341 1343 1345 1347 1350 1353 1355
1521 1520 1520 1519 1517 1515 1513 1510 1507 1503 1499 1494 1489 1483 1477 1469 1462 1454 1446 1439 1430 1422 1413 1405 1397 1390 1383 1375 1367 1360 1353 1348 1343 1340 1337 1336 1335 1336 1337 1339 1341 1345 1348 1350
1521 1517 1517 1516 1514 1512 1509 1507 1504 1500 1495 1491 1486 1480 1473 1466 1459 1451 1443 1435 1426 1418 1410 1402 1394 1387 1379 1372 1365 1358 1351 1346 1341 1338 1335 1333 1333 1333 1334 1335 1338 1341 1344 1347
1511 1512 1513 1512 1511 1509 1507 1504 1501 1497 1493 1488 1483 1477 1470 1463 1455 1448 1440 1432 1423 1415 1407 1400 1392 1385 1378 1370 1364 1357 1350 1345 1340 1337 1334 1333 1332 1332 1332 1334 1336 1338 1341 1344
1509 1509 1509 1508 1507 1506 1503 1501 1497 1494 1490 1485 1480 1473 1467 1460 1452 1445 1437 1429 1421 1413 1405 1398 1390 1383 1377 1370 1363 1357 1351 1345 1340 1337 1335 1333 1332 1332 1332 1333 1335 1337 1340 1343
1506 1506 1505 1505 1504 1502 1500 1497 1494 1490 1486 1481 1476 1470 1463 1456 1450 1443 1435 1427 1419 1411 1403 1396 1389 1382 1376 1370 1364 1358 1352 1346 1342 1339 1336 1335 1334 1333 1333 1334 1335 1338 1340 1343
1503 1503 1502 1501 1500 1499 1496 1494 1490 1487 1483 1478 1473 1467 1461 1455 1447 1440 1433 1425 1417 1409 1401 1394 1387 1381 1376 1370 1365 1359 1354 1349 1345 1342 1339 1337 1336 1336 1336 1336 1337 1339 1341 1343
1500 1499 1499 1498 1497 1495 1493 1491 1488 1484 1480 1476 1471 1465 1459 1452 1444 1437 1430 1423 1416 1409 1401 1394 1387 1380 1375 1370 1365 1361 1356 1352 1348 1345 1342 1341 1340 1339 1339 1339 1340 1341 1343 1345
1496 1495 1495 1494 1494 1492 1490 1488 1485 1482 1478 1474 1468 1463 1456 1450 1443 1436 1429 1422 1415 1408 1401 1393 1386 1380 1374 1370 1366 1362 1358 1355 1351 1349 1346 1345 1343 1343 1342 1343 1343 1344 1346 1347
1493 1493 1492 1491 1490 1489 1487 1485 1482 1479 1476 1471 1466 1460 1454 1448 1442 1435 1428 1421 1414 1406 1399 1392 1386 1379 1374 1369 1365 1362 1360 1357 1354 1352 1350 1348 1347 1346 1346 1346 1347 1347 1348 1348
1489 1489 1489 1488 1487 1486 1484 1482 1480 1477 1473 1469 1463 1458 1452 1446 1440 1433 1427 1421 1415 1408 1401 1394 1386 1380 1374 1369 1365 1361 1359 1357 1356 1354 1353 1352 1351 1350 1350 1350 1350 1351 1351 1352
1486 1486 1485 1485 1484 1483 1481 1479 1477 1474 1470 1466 1461 1456 1450 1445 1439 1433 1426 1419 1414 1408 1402 1395 1388 1382 1376 1371 1366 1362 1359 1357 1356 1355 1355 1354 1354 1353 1353 1353 1354 1354 1355 1355
1482 1482 1481 1481 1480 1479 1478 1476 1474 1471 1468 1464 1459 1454 1448 1442 1437 1431 1427 1421 1415 1409 1403 1396 1390 1385 1379 1373 1368 1364 1361 1358 1356 1356 1355 1355 1355 1355 1356 1356 1356 1357 1358 1359
1478 1478 1477 1477 1476 1476 1475 1473 1471 1469 1465 1461 1457 1452 1447 1442 1437 1431 1425 1420 1414 1409 1404 1398 1393 1387 1381 1376 1371 1367 1363 1360 1358 1357 1356 1356 1356 1356 1356 1357 1358 1360 1361 1363
1474 1473 1473 1472 1472 1472 1471 1470 1469 1466 1463 1460 1456 1451 1446 1440 1435 1431 1426 1420 1414 1409 1405 1400 1395 1389 1384 1379 1374 1370 1366 1363 1361 1359 1358 1357 1357 1357 1357 1358 1359 1361 1363 1366
1469 1469 1468 1468 1468 1468 1468 1467 1466 1463 1461 1458 1454 1450 1445 1439 1435 1430 1425 1420 1414 1409 1404 1400 1396 1391 1387 1382 1378 1374 1371 1368 1366 1364 1362 1361 1361 1360 1360 1360 1361 1362 1364 1367
1464 1464 1463 1463 1464 1464 1464 1464 1463 1461 1458 1456 1452 1448 1443 1438 1434 1429 1424 1419 1414 1409 1405 1401 1397 1393 1390 1386 1382 1379 1376 1373 1370 1369 1367 1367 1366 1366 1365 1365 1366 1367 1369 1371
1459 1459 1459 1459 1459 1460 1461 1460 1459 1458 1456 1454 1451 1447 1442 1438 1433 1428 1424 1419 1415 1410 1406 1402 1398 1395 1392 1389 1386 1383 1380 1378 1375 1373 1372 1371 1371 1371 1371 1371 1372 1373 1374 1376